[[{"header":{"parameterUnit":"m.s-1","parameterCategory":1,"la1":30.2991,"la2":30.254,"lo1":-89.0895,"lo2":-89.0444,"dy":0.0017,"dx":0.0017,"nx":28,"ny":28,"refTime":"2025-03-01T03:00:00:Z","depth":0,"parameterNumber":2,"parameterNumberName":"U-component_of_WINDS"},"data":[0,0,0,0,0,0,0,0,0,0,0,0,0,0,0,0,0,0,0,0,0,0,0,0,0,0,0,0,0,0,0,0,0,0,0,0,0,0,0,0,0,0,0,0,0,0,0,0,0,0,0,0,0,0,0,0,0,0,1.3413,1.3413,0,1.3481,1.3482,1.3483,1.3497,1.3497,1.3496,1.3496,1.357,1.3572,1.3575,0,0,0,0,0,0,0,0,0,0,0,0,0,1.33,1.3302,1.3413,1.3414,1.3414,1.3481,1.3482,1.3483,1.3497,1.3497,1.3496,1.3496,1.3569,1.3572,1.3575,0,0,0,0,0,0,0,0,0,0,0,0,0,1.3357,1.3303,1.3413,1.343,1.3432,1.3481,1.3482,1.3483,1.3498,1.3497,1.3496,1.3495,1.3568,1.3572,1.3575,1.3613,0,0,1.3586,1.3588,0,0,0,0,0,0,0,0,1.3353,1.3361,1.3426,1.3429,1.3431,1.348,1.3469,1.3527,1.3498,1.3473,1.3496,1.3495,1.3541,1.3547,1.3561,1.3617,1.362,1.3587,1.3589,1.3591,1.3592,0,0,0,0,0,0,0,1.3349,1.3358,1.344,1.3427,1.343,1.3436,1.3443,1.348,1.351,1.3475,1.3476,1.3484,1.3542,1.3558,1.3563,1.3621,1.3587,1.359,1.3592,1.3594,1.3713,1.3714,0,0,0,0,0,0,1.3342,1.3355,1.3438,1.3442,1.3389,1.3438,1.3446,1.3465,1.351,1.3516,1.3484,1.3484,1.3552,1.3559,1.3566,1.3614,1.3591,1.3594,1.3596,1.3712,1.3713,1.3714,0,0,0,0,0,0,1.3339,1.3349,1.3435,1.3399,1.341,1.3441,1.3462,1.3467,1.3482,1.3517,1.3523,1.3494,1.3551,1.3561,1.3601,1.3617,1.3596,1.3599,1.3711,1.3712,1.3714,1.3711,0,0,0,0,0,0,1.3336,1.3348,1.3362,1.3399,1.3412,1.3468,1.3463,1.3469,1.3488,1.3489,1.3528,1.3534,1.3552,1.3596,1.3605,1.3622,1.3602,1.371,1.3712,1.3713,1.371,1.3712,1.3714,0,0,0,0,0,1.3332,1.3358,1.3362,1.3372,1.3429,1.3469,1.3476,1.3495,1.3489,1.3504,1.3527,1.3533,1.3614,1.36,1.361,1.3628,1.3709,1.3711,1.3713,1.3709,1.3711,1.3714,0,0,0,0,0,0,1.3323,1.3363,1.3368,1.3407,1.3434,1.3471,1.349,1.3497,1.3527,1.3526,1.3549,1.3558,1.3598,1.3617,1.3601,1.3668,1.3661,1.3666,1.3654,1.3657,1.3659,1.3654,1.3605,0,0,0,0,0,1.3325,1.3353,1.3387,1.3419,1.3432,1.3458,1.3476,1.3488,1.3518,1.353,1.3555,1.3585,1.3618,1.3638,1.367,1.3712,1.3722,1.373,1.3732,1.3734,1.3738,1.3763,1.3768,1.3721,1.3721,1.3721,0,0,1.3331,1.3357,1.3373,1.3417,1.344,1.3469,1.3468,1.3499,1.3522,1.3535,1.3575,1.3595,1.363,1.3672,1.3692,1.3689,1.3753,1.3737,1.3738,1.3741,1.3766,1.377,1.3774,1.3723,1.3723,1.3722,0,0,1.3356,1.3378,1.3406,1.3429,1.3463,1.3481,1.3488,1.3524,1.3538,1.3578,1.3589,1.3617,1.3672,1.3697,1.3717,1.3753,1.3761,1.3763,1.3774,1.3799,1.3803,1.3806,1.382,1.3825,1.3766,1.3766,1.3766,0,1.3359,1.3402,1.3421,1.3452,1.3472,1.3485,1.3515,1.3537,1.358,1.3594,1.359,1.366,1.3685,1.3734,1.3742,1.3758,1.3768,1.3759,1.38,1.3804,1.3807,1.3821,1.3827,1.3767,1.3767,1.3767,1.3767,0,1.3405,1.3435,1.3455,1.3495,1.3518,1.3548,1.3573,1.3594,1.3604,1.3623,1.3665,1.3695,1.3734,1.3746,1.3757,1.3797,1.3795,1.3795,1.3789,1.3812,1.3825,1.3831,1.3767,1.3767,1.3767,1.3767,0,0,1.3425,1.3476,1.3483,1.3503,1.3542,1.3566,1.3599,1.3635,1.3653,1.3683,1.3712,1.3759,1.376,1.3782,1.3796,1.3818,1.3847,1.3816,1.3818,1.3822,1.3895,1.3894,1.39,1.3852,1.3853,1.3854,1.3892,0,1.3456,1.3512,1.3531,1.3578,1.3607,1.3621,1.3649,1.3677,1.3696,1.3725,1.3747,1.378,1.3778,1.3792,1.3814,1.3838,1.3862,1.3836,1.388,1.3882,1.3871,1.3907,1.3906,1.3941,1.3898,1.3898,1.3899,0,1.3499,1.3529,1.3579,1.3616,1.3629,1.3654,1.369,1.3717,1.375,1.3762,1.3788,1.3801,1.3837,1.3828,1.3879,1.3861,1.3881,1.3896,1.3897,1.3903,1.3892,1.3914,1.3952,1.3958,1.3907,1.3907,1.3906,0,1.351,1.3563,1.36,1.3616,1.366,1.3677,1.3697,1.3729,1.375,1.3782,1.3797,1.3833,1.3853,1.3882,1.3905,1.3896,1.3955,1.3947,1.3967,1.3967,1.3979,1.3978,1.4022,1.3991,1.3991,1.3991,1.399,0,1.3542,1.3572,1.3606,1.3628,1.3664,1.3686,1.3721,1.3741,1.377,1.3798,1.3813,1.384,1.3868,1.3899,1.3917,1.3958,1.3967,1.3979,1.3984,1.3978,1.3977,1.3991,1.399,1.3992,1.3992,1.3991,1.3991,0,1.356,1.3583,1.3625,1.3663,1.3674,1.3698,1.3732,1.3756,1.3776,1.3812,1.3822,1.3854,1.3891,1.3917,1.3965,1.3978,1.4022,1.4026,1.401,1.4012,1.4031,1.403,1.4087,1.4096,1.4058,1.4058,1.4058,0,1.3579,1.3603,1.3644,1.3664,1.3683,1.3714,1.3736,1.376,1.3782,1.3823,1.3842,1.3881,1.3912,1.3972,1.4001,1.4038,1.4044,1.4061,1.4049,1.4044,1.4045,1.4043,1.4047,1.4063,1.4063,1.4064,1.4064,0,1.3611,1.3621,1.3652,1.3687,1.3713,1.3742,1.3772,1.3787,1.3816,1.3841,1.3879,1.3904,1.3954,1.3992,1.4033,1.4055,1.4065,1.4067,1.4074,1.4069,1.4059,1.4065,1.4016,1.4066,1.4066,1.4066,1.4065,1.4065,1.363,1.3653,1.3685,1.372,1.3744,1.3772,1.3796,1.382,1.3852,1.3893,1.3905,1.3945,1.398,1.4036,1.4058,1.4091,1.409,1.4099,1.4102,1.4104,1.4104,1.4053,1.4099,1.4099,1.4099,1.4099,1.4099,0,1.3663,1.3686,1.3717,1.3757,1.3785,1.3791,1.3825,1.3848,1.3882,1.3913,1.3945,1.399,1.4028,1.4059,1.4099,1.4119,1.4125,1.4129,1.4128,1.4133,1.4103,1.4093,1.4124,1.4124,1.4124,1.4124,1.4124,1.4124,1.3684,1.3722,1.3738,1.3789,1.3812,1.385,1.3869,1.3895,1.392,1.3969,1.4001,1.4021,1.4053,1.4096,1.4131,1.414,1.4154,1.4157,1.4167,1.4138,1.4135,1.4132,1.4124,1.416,1.416,1.4195,1.4195,1.4195]},{"header":{"parameterUnit":"m.s-1","parameterCategory":1,"la1":30.2991,"la2":30.254,"lo1":-89.0895,"lo2":-89.0444,"dy":0.0017,"dx":0.0017,"nx":28,"ny":28,"refTime":"2025-03-01T03:00:00:Z","depth":0,"parameterNumber":3,"parameterNumberName":"V-component_of_WINDS"},"data":[0,0,0,0,0,0,0,0,0,0,0,0,0,0,0,0,0,0,0,0,0,0,0,0,0,0,0,0,0,0,0,0,0,0,0,0,0,0,0,0,0,0,0,0,0,0,0,0,0,0,0,0,0,0,0,0,0,0,1.7196,1.7198,0,1.7376,1.7378,1.738,1.7351,1.7348,1.7344,1.7341,1.7525,1.7532,1.754,0,0,0,0,0,0,0,0,0,0,0,0,0,1.6819,1.6826,1.7196,1.7198,1.72,1.7376,1.7378,1.7381,1.7351,1.7347,1.7344,1.734,1.7522,1.7531,1.7541,0,0,0,0,0,0,0,0,0,0,0,0,0,1.6989,1.6828,1.7195,1.7207,1.7209,1.7375,1.7378,1.7381,1.7352,1.7347,1.7343,1.7338,1.7519,1.7531,1.7542,1.7708,0,0,1.7578,1.7583,0,0,0,0,0,0,0,0,1.698,1.7003,1.7203,1.7206,1.721,1.7336,1.7313,1.7491,1.7353,1.7298,1.7341,1.7336,1.7466,1.7481,1.7526,1.7716,1.7724,1.7579,1.7586,1.7591,1.7594,0,0,0,0,0,0,0,1.6968,1.6995,1.7267,1.7205,1.721,1.72,1.722,1.7346,1.7406,1.7302,1.7301,1.7322,1.7467,1.7514,1.753,1.7727,1.7578,1.7589,1.7596,1.7601,1.8054,1.8059,0,0,0,0,0,0,1.6953,1.6986,1.7261,1.7272,1.7081,1.7211,1.7232,1.73,1.7404,1.7416,1.7326,1.732,1.7497,1.7516,1.7536,1.7732,1.7591,1.7602,1.7608,1.8049,1.8055,1.806,0,0,0,0,0,0,1.6945,1.6978,1.7254,1.7129,1.7163,1.7223,1.7299,1.7306,1.7354,1.7422,1.7432,1.7364,1.7494,1.752,1.7663,1.7738,1.7607,1.7618,1.8043,1.8051,1.8058,1.8127,0,0,0,0,0,0,1.6935,1.6976,1.7041,1.713,1.717,1.7381,1.7304,1.7313,1.7374,1.7368,1.7461,1.7472,1.7492,1.7646,1.7675,1.7751,1.7627,1.8037,1.8046,1.8055,1.8119,1.8136,1.8152,0,0,0,0,0,1.6921,1.7055,1.7045,1.7078,1.7253,1.7385,1.7408,1.7429,1.7381,1.7445,1.7488,1.7469,1.7725,1.7661,1.7694,1.7775,1.8032,1.8044,1.8055,1.8111,1.8133,1.8151,0,0,0,0,0,0,1.6975,1.7067,1.7057,1.7224,1.7296,1.738,1.7463,1.7452,1.754,1.7531,1.7553,1.7574,1.7718,1.7761,1.7688,1.7936,1.7871,1.789,1.7903,1.7924,1.794,1.7927,1.7636,0,0,0,0,0,1.7005,1.7106,1.7181,1.7321,1.7358,1.7404,1.7462,1.7472,1.7548,1.7579,1.7633,1.7706,1.7802,1.7866,1.7959,1.8124,1.8141,1.8195,1.8212,1.8225,1.824,1.8324,1.8347,1.8098,1.8098,1.8097,0,0,1.7071,1.7134,1.7197,1.7333,1.7391,1.7492,1.743,1.7542,1.7616,1.7596,1.7734,1.7775,1.7858,1.8012,1.8082,1.8052,1.8312,1.8239,1.8249,1.8257,1.8338,1.8361,1.8382,1.8105,1.8104,1.8103,0,0,1.7241,1.7301,1.7421,1.7478,1.7566,1.7594,1.7623,1.7707,1.7733,1.7872,1.7856,1.7944,1.8111,1.8169,1.8221,1.8405,1.8388,1.8434,1.852,1.8601,1.8621,1.8638,1.87,1.8722,1.8449,1.845,1.845,0,1.7311,1.7465,1.7484,1.7595,1.7653,1.7637,1.7756,1.7811,1.7924,1.7963,1.7928,1.8132,1.8188,1.8352,1.8395,1.8439,1.8469,1.8424,1.8617,1.8635,1.8651,1.871,1.8733,1.8454,1.8454,1.8453,1.8453,0,1.7544,1.765,1.7736,1.7843,1.7911,1.8026,1.8059,1.8125,1.8126,1.8157,1.8295,1.836,1.8463,1.8503,1.8507,1.8665,1.8643,1.8612,1.8547,1.8679,1.8734,1.8757,1.8461,1.8459,1.8458,1.8457,0,0,1.7756,1.7868,1.7899,1.7945,1.8037,1.8118,1.8229,1.8329,1.8382,1.8459,1.855,1.8689,1.8658,1.8717,1.8726,1.8798,1.8933,1.8757,1.8759,1.8784,1.9105,1.9126,1.9152,1.8922,1.8927,1.893,1.9097,0,1.7932,1.813,1.8147,1.8323,1.8418,1.8401,1.8497,1.8562,1.8592,1.8675,1.8708,1.8804,1.876,1.8793,1.8864,1.8902,1.8997,1.889,1.9004,1.9008,1.8982,1.9182,1.9206,1.936,1.9119,1.9123,1.9125,0,1.8166,1.8246,1.8432,1.8504,1.8544,1.8631,1.872,1.8801,1.8871,1.8888,1.8949,1.8947,1.9057,1.8988,1.9137,1.9064,1.911,1.9135,1.9142,1.9152,1.9074,1.9194,1.9411,1.9433,1.916,1.9158,1.9155,0,1.8296,1.8452,1.8581,1.8622,1.8711,1.877,1.881,1.8876,1.8933,1.901,1.9045,1.9135,1.9183,1.9251,1.9271,1.9219,1.9417,1.9351,1.9431,1.943,1.9474,1.947,1.9697,1.9508,1.9507,1.9507,1.9506,0,1.849,1.8603,1.864,1.872,1.8844,1.886,1.8982,1.9018,1.9075,1.9159,1.915,1.9228,1.9251,1.9332,1.9348,1.9466,1.9489,1.9502,1.9505,1.9502,1.95,1.9532,1.9521,1.9513,1.9512,1.951,1.9509,0,1.8658,1.8689,1.8827,1.8898,1.8918,1.9006,1.9065,1.9139,1.9166,1.9271,1.9297,1.9338,1.9432,1.9459,1.9573,1.9583,1.972,1.9714,1.9696,1.9696,1.9772,1.9764,2.0027,2.006,1.9851,1.9853,1.9855,0,1.8779,1.8865,1.8944,1.8998,1.904,1.9129,1.9185,1.9203,1.9261,1.9344,1.9407,1.95,1.9575,1.9725,1.9764,1.9848,1.9843,1.9929,1.9856,1.9848,1.984,1.9833,1.9839,1.9943,1.9945,1.9947,1.9948,0,1.8989,1.8998,1.908,1.9166,1.9233,1.9302,1.9367,1.9412,1.9438,1.9503,1.9599,1.9656,1.9769,1.9859,1.9944,1.9981,1.9968,1.997,1.9993,1.999,1.9974,1.998,1.9731,1.9964,1.9963,1.9962,1.9961,1.996,1.9135,1.9208,1.9273,1.9363,1.9413,1.9473,1.9545,1.9578,1.9658,1.9752,1.9756,1.9858,1.992,2.0032,2.0073,2.0151,2.0125,2.0159,2.0167,2.0174,2.0178,1.9963,2.0167,2.0166,2.0166,2.0166,2.0165,0,1.9341,1.9381,1.9463,1.9553,1.9623,1.9603,1.9672,1.9731,1.9821,1.988,1.9952,2.0058,2.0144,2.0187,2.0271,2.0324,2.032,2.0346,2.0341,2.0348,2.0199,2.0169,2.0347,2.0347,2.0347,2.0347,2.0347,2.0347,1.9457,1.9578,1.9593,1.9736,1.9775,1.9874,1.9915,1.9968,2.0014,2.0133,2.0204,2.0231,2.0282,2.0368,2.0444,2.0454,2.0484,2.0513,2.0519,2.0379,2.036,2.0342,2.0314,2.052,2.052,2.0662,2.0663,2.0664]}]]